Location: Fort Wayne
(41.1310°N, 85.1290°W)
Time: 05:26:54
(UTC-04:00)

Cosmos 1980 - Visible Passes

Search period start: 19 April 2015 00:00
Search period end: 29 April 2015 00:00
Orbit: 841 x 846 km, 71.0° (Epoch: 18 April)

Date Brightness Start Highest point End Pass type
(mag) Time Alt. Az. Time Alt. Az. Time Alt. Az.
20 Apr 6.3 06:16:06 10° SE 06:19:44 18° E 06:23:36 10° ENE visible
21 Apr 6.3 06:01:47 10° SE 06:05:16 18° E 06:09:00 10° ENE visible
22 Apr 6.3 05:47:28 10° SE 05:50:48 17° E 05:54:23 10° ENE visible
23 Apr 6.3 05:33:10 10° SE 05:36:20 16° E 05:39:46 10° ENE visible
24 Apr 6.3 05:18:54 10° SE 05:21:52 15° E 05:25:08 10° ENE visible
25 Apr 6.3 05:04:37 10° SE 05:07:23 14° E 05:10:29 10° ENE visible
26 Apr 6.3 04:50:22 10° SE 04:52:56 14° E 04:55:49 10° ENE visible
27 Apr 6.3 04:36:08 10° ESE 04:38:27 13° E 04:41:07 10° ENE visible
28 Apr 6.3 04:21:56 10° ESE 04:23:59 12° E 04:26:23 10° ENE visible
28 Apr 3.7 06:01:45 10° SSW 06:07:24 85° WNW 06:13:06 10° NNE visible
